Willis Island Observation History
Time Wind Speed Temp Pressure Rel. Hum Rain
05/09:00pm SE 24-29 kts 25.2°c 1017.7 hPa 74% 0.8mm
05/08:30pm SE 24-29 kts 25.2°c 1017.6 hPa 76% 0.8mm
05/08:00pm SE 25-30 kts 25.3°c 1017.5 hPa 76% 0.8mm
05/07:30pm SE 25-31 kts 25.2°c 1017.0 hPa 79% 0.8mm
05/07:00pm SE 26-32 kts 24.8°c 1016.5 hPa 82% 0.8mm
05/06:30pm SE 26-30 kts 24.0°c 1016.3 hPa 85% 0.8mm
05/06:00pm ESE 26-33 kts 24.2°c 1016.0 hPa 83% 0.6mm
05/05:30pm SE 25-30 kts 25.3°c 1015.7 hPa 78% 0.6mm
05/05:00pm SE 25-29 kts 25.3°c 1015.2 hPa 77% 0.6mm
05/04:30pm SE 25-30 kts 25.5°c 1014.9 hPa 76% 0.6mm
05/04:00pm SE 25-30 kts 25.5°c 1014.8 hPa 76% 0.6mm
05/03:30pm SE 24-29 kts 25.6°c 1014.4 hPa 77% 0.6mm
05/03:00pm SE 25-29 kts 25.6°c 1014.4 hPa 79% 0.6mm
05/02:30pm ESE 25-30 kts 26.5°c 1014.3 hPa 72% 0.6mm
05/02:00pm SE 24-30 kts 25.5°c 1014.7 hPa 78% 0.6mm
05/01:30pm ESE 23-30 kts 24.9°c 1014.9 hPa 85% 0.6mm
05/01:00pm ESE 29-40 kts 23.9°c 1015.2 hPa 83% 0.4mm
05/12:56pm ESE 28-40 kts 24.8°c 1015.1 hPa 75% 0.2mm
05/12:30pm SE 26-31 kts 26.3°c 1015.5 hPa 73% 0.2mm
05/12:00pm ESE 27-31 kts 26.5°c 1015.8 hPa 74% 0.2mm
05/11:30am ESE 27-36 kts 25.6°c 1016.3 hPa 77% 0.2mm
05/11:00am SE 25-29 kts 25.2°c 1016.7 hPa 85% 0.2mm
05/10:30am ESE 26-31 kts 24.4°c 1016.9 hPa 85% 0.0mm
05/10:00am ESE 25-29 kts 25.1°c 1017.2 hPa 82% 0.0mm
05/09:30am SE 25-29 kts 25.3°c 1017.3 hPa 85% 0.0mm
05/09:05am ESE 23-33 kts 24.7°c 1017.3 hPa 86% 0.0mm
05/09:00am ESE 23-26 kts 24.8°c 1017.2 hPa 88% 0.6mm
05/08:38am E 26-36 kts 24.0°c 1017.1 hPa 85% 0.4mm
05/08:30am ESE 25-31 kts 24.4°c 1016.9 hPa 86% 0.4mm
05/08:00am SE 25-30 kts 24.8°c 1016.7 hPa 85% 0.4mm
05/07:30am ESE 25-29 kts 24.8°c 1016.6 hPa 85% 0.4mm
05/07:00am ESE 25-31 kts 24.7°c 1016.1 hPa 85% 0.2mm
05/06:30am ESE 27-32 kts 25.0°c 1015.7 hPa 81% 0.2mm
05/06:00am SE 26-33 kts 24.6°c 1015.4 hPa 83% 0.2mm
05/05:30am SE 26-31 kts 24.9°c 1015.1 hPa 81% 0.2mm
05/05:00am SE 26-31 kts 24.7°c 1015.0 hPa 82% 0.2mm
05/04:30am SE 28-32 kts 25.2°c 1014.7 hPa 79% 0.2mm
05/04:00am SE 27-34 kts 25.0°c 1014.6 hPa 79% 0.2mm
05/03:30am SE 28-32 kts 25.2°c 1014.7 hPa 79% 0.2mm
05/03:00am SE 27-31 kts 25.2°c 1015.0 hPa 80% 0.2mm
05/02:30am SE 27-31 kts 25.0°c 1015.1 hPa 80% 0.2mm
05/02:00am SE 28-31 kts 25.0°c 1015.6 hPa 80% 0.2mm
05/01:30am SE 27-34 kts 25.1°c 1016.1 hPa 79% 0.2mm
05/01:00am SE 27-32 kts 25.1°c 1016.4 hPa 79% 0.2mm
05/12:30am SE 27-33 kts 25.0°c 1016.7 hPa 81% 0.2mm
05/12:00am SE 28-33 kts 25.3°c 1017.1 hPa 78% 0.2mm
Time Wind Speed Temp Pressure Rel. Hum Rain
04/11:30pm SE 28-33 kts 25.3°c 1017.2 hPa 77% 0.2mm
04/11:00pm SE 27-32 kts 25.5°c 1017.4 hPa 79% 0.2mm
04/10:30pm SE 27-33 kts 25.5°c 1017.6 hPa 76% 0.2mm
04/10:00pm SE 28-33 kts 25.4°c 1017.7 hPa 79% 0.2mm
04/09:30pm SE 27-31 kts 24.9°c 1017.8 hPa 82% 0.0mm
04/09:00pm SE 26-32 kts 24.9°c 1017.8 hPa 84% 0.0mm
04/08:30pm SE 24-30 kts 25.0°c 1017.6 hPa 84% 0.0mm
04/08:00pm SE 25-30 kts 24.8°c 1017.5 hPa 84% 0.0mm
04/07:30pm SE 26-30 kts 24.6°c 1017.5 hPa 83% 0.0mm
04/07:00pm SE 25-29 kts 24.5°c 1017.2 hPa 84% 0.0mm
04/06:30pm SE 27-34 kts 24.3°c 1016.9 hPa 83% 0.0mm
04/06:00pm SE 26-30 kts 24.6°c 1016.5 hPa 83% 0.0mm
04/05:30pm SE 28-32 kts 24.8°c 1016.1 hPa 80% 0.0mm
04/05:00pm SE 26-32 kts 24.8°c 1015.8 hPa 82% 0.0mm
04/04:30pm SE 28-33 kts 25.1°c 1015.5 hPa 80% 0.0mm
04/04:00pm SE 27-31 kts 25.0°c 1015.3 hPa 80% 0.0mm
04/03:30pm SE 27-33 kts 24.7°c 1015.1 hPa 79% 0.0mm
04/03:00pm SE 25-30 kts 25.1°c 1015.2 hPa 78% 0.0mm
04/02:30pm SE 27-32 kts 25.3°c 1015.4 hPa 76% 0.0mm
04/02:00pm SE 26-31 kts 25.0°c 1015.7 hPa 78% 0.0mm
04/01:30pm SE 25-29 kts 25.1°c 1015.9 hPa 77% 0.0mm
04/01:00pm SE 26-31 kts 25.1°c 1016.1 hPa 80% 0.0mm
04/12:30pm SSE 27-31 kts 24.9°c 1016.7 hPa 81% 0.0mm
04/12:00pm SE 26-30 kts 24.0°c 1016.9 hPa 83% 0.0mm
04/11:30am SE 27-33 kts 23.8°c 1017.2 hPa 86% 0.0mm
04/11:00am SE 24-28 kts 24.8°c 1017.4 hPa 81% 0.0mm
04/10:30am SE 25-29 kts 24.4°c 1017.8 hPa 85% 0.0mm
04/10:00am SE 26-30 kts 24.3°c 1017.8 hPa 84% 0.0mm
04/09:30am SE 24-29 kts 24.2°c 1017.8 hPa 86% 0.0mm
04/09:00am SE 24-29 kts 23.2°c 1017.8 hPa 88% 0.2mm
04/08:30am SSE 24-30 kts 23.5°c 1017.6 hPa 87% 0.0mm
04/08:00am SE 26-33 kts 23.4°c 1017.3 hPa 86% 0.0mm
04/07:30am SSE 25-29 kts 23.6°c 1017.1 hPa 87% 0.0mm
04/07:00am SSE 26-32 kts 23.3°c 1016.6 hPa 85% 0.0mm
04/06:30am SSE 26-32 kts 24.0°c 1016.1 hPa 81% 0.0mm
04/06:00am SSE 25-32 kts 23.9°c 1015.7 hPa 84% 0.0mm
04/05:30am SSE 27-31 kts 23.2°c 1015.5 hPa 87% 0.0mm
04/05:00am SSE 29-34 kts 23.1°c 1015.4 hPa 86% 0.0mm
04/04:30am SSE 27-33 kts 23.5°c 1015.3 hPa 85% 0.0mm
04/04:00am SSE 27-32 kts 23.4°c 1015.3 hPa 85% 0.0mm
04/03:30am SSE 25-30 kts 23.5°c 1015.1 hPa 87% 0.0mm
04/03:00am SSE 26-30 kts 23.5°c 1015.3 hPa 84% 0.0mm
04/02:30am SSE 25-29 kts 23.4°c 1015.6 hPa 85% 0.0mm
04/02:00am SSE 25-31 kts 23.8°c 1016.0 hPa 83% 0.0mm
04/01:30am SSE 26-29 kts 24.2°c 1016.3 hPa 81% 0.0mm
04/01:00am SSE 25-31 kts 24.6°c 1016.4 hPa 79% 0.0mm
04/12:30am SSE 24-28 kts 24.7°c 1016.7 hPa 78% 0.0mm
04/12:00am SSE 25-28 kts 24.7°c 1017.0 hPa 78% 0.0mm
Time Wind Speed Temp Pressure Rel. Hum Rain
03/11:30pm SSE 25-29 kts 24.8°c 1017.0 hPa 77% 0.0mm
03/11:00pm SSE 25-29 kts 24.7°c 1017.3 hPa 76% 0.0mm
03/10:30pm SSE 24-29 kts 24.8°c 1017.4 hPa 77% 0.0mm
03/10:00pm SSE 25-29 kts 24.5°c 1017.5 hPa 79% 0.0mm
03/09:30pm SSE 24-27 kts 24.7°c 1017.7 hPa 78% 0.0mm
03/09:00pm SSE 23-27 kts 24.1°c 1017.6 hPa 82% 0.0mm
03/08:30pm SSE 25-29 kts 23.9°c 1017.3 hPa 82% 0.0mm
03/08:00pm SSE 24-28 kts 24.0°c 1017.3 hPa 80% 0.0mm
03/07:30pm SSE 23-29 kts 24.4°c 1017.0 hPa 77% 0.0mm
03/07:00pm SSE 23-28 kts 24.5°c 1016.7 hPa 76% 0.0mm
03/06:30pm SSE 23-27 kts 24.6°c 1016.2 hPa 76% 0.0mm
03/06:00pm SE 23-28 kts 24.7°c 1015.9 hPa 75% 0.0mm
03/05:30pm SE 23-28 kts 24.5°c 1015.5 hPa 75% 0.0mm
03/05:00pm SE 24-31 kts 24.6°c 1015.4 hPa 72% 0.0mm
03/04:30pm SE 23-30 kts 25.1°c 1015.0 hPa 73% 0.0mm
03/04:00pm SE 25-30 kts 25.1°c 1014.9 hPa 71% 0.0mm
03/03:30pm SE 23-27 kts 25.3°c 1014.7 hPa 69% 0.0mm
03/03:00pm SE 23-28 kts 25.4°c 1014.8 hPa 70% 0.0mm
03/02:30pm SE 24-28 kts 25.2°c 1015.0 hPa 68% 0.0mm
03/02:00pm SE 25-30 kts 25.3°c 1015.1 hPa 68% 0.0mm
03/01:30pm SE 24-29 kts 25.4°c 1015.2 hPa 67% 0.0mm
03/01:00pm SE 23-27 kts 25.5°c 1015.5 hPa 65% 0.0mm
03/12:30pm SE 25-29 kts 25.4°c 1016.0 hPa 65% 0.0mm
03/12:00pm SE 25-31 kts 25.9°c 1016.4 hPa 62% 0.0mm
03/11:30am SE 25-29 kts 26.4°c 1016.8 hPa 63% 0.0mm
03/11:00am SE 26-30 kts 26.3°c 1017.1 hPa 61% 0.0mm
03/10:30am SE 25-30 kts 26.3°c 1017.4 hPa 65% 0.0mm
03/10:00am SE 25-29 kts 25.8°c 1017.7 hPa 62% 0.0mm
03/09:30am SE 25-30 kts 26.4°c 1017.9 hPa 65% 0.0mm
03/09:00am SE 25-31 kts 25.8°c 1017.8 hPa 61% 0.0mm
03/08:30am SE 27-31 kts 25.4°c 1017.8 hPa 62% 0.0mm
03/08:00am SE 27-31 kts 25.4°c 1017.5 hPa 62% 0.0mm
03/07:30am SE 26-32 kts 25.2°c 1017.1 hPa 65% 0.0mm
03/07:00am SE 26-31 kts 25.0°c 1016.9 hPa 66% 0.0mm
03/06:30am SE 25-30 kts 24.8°c 1016.4 hPa 68% 0.0mm
03/06:00am SE 25-30 kts 24.9°c 1016.0 hPa 69% 0.0mm
03/05:30am SE 26-32 kts 24.7°c 1015.9 hPa 67% 0.0mm
03/05:00am SE 25-32 kts 24.7°c 1015.7 hPa 67% 0.0mm
03/04:30am SE 26-30 kts 24.8°c 1015.7 hPa 68% 0.0mm
03/04:00am SE 25-30 kts 24.6°c 1015.5 hPa 68% 0.0mm
03/03:30am SE 26-30 kts 24.7°c 1015.4 hPa 68% 0.0mm
03/03:00am SE 25-30 kts 24.7°c 1015.6 hPa 67% 0.0mm
03/02:30am SE 25-28 kts 24.6°c 1015.7 hPa 69% 0.0mm
03/02:00am SE 25-31 kts 24.7°c 1016.0 hPa 67% 0.0mm
03/01:30am SE 25-29 kts 24.6°c 1016.3 hPa 68% 0.0mm
03/01:00am SE 25-29 kts 24.9°c 1016.7 hPa 66% 0.0mm
03/12:30am SE 25-30 kts 24.8°c 1016.9 hPa 67% 0.0mm
03/12:00am SE 26-31 kts 24.8°c 1017.0 hPa 68% 0.0mm